Location: Ch�tillon
(48.8024°N, 2.2935°E)
Time: 14:35:14
(UTC+00:00)

CAS-4A - Pass Details

Date: 08 July 2022
Orbit: 521 x 536 km, 43.0° (Epoch: 19 August)

Event Time Altitude Azimuth Distance (km) Brightness Sun altitude
Exits shadow 00:34:51 24° 129° (SE) 1,103 ? -18.2°
Drops below altitude 10° 00:36:55 10° 107° (ESE) 1,757 ? -18.1°
Sets 00:39:17 0° 98° (E) 2,648 ? -18.0°
